• In Belarus
  • List of Countries
  • For 7 days
  • Water Temperature
  • Satellite Maps
  • Weather Map
  • Weather Widgets
  • user-avatar
    Login

    Hourly Weather Corozal

    Today, 25 June, Tuesday

    Time Temperature Precipitation Wind Pressure Humidity
    00:00 +27°C° 0 mm 2 mps 760 mmHg 91%
    01:00 +27°C° 0 mm 2 mps 759 mmHg 92%
    02:00 +27°C° 0 mm 2 mps 759 mmHg 93%
    03:00 +27°C° 0 mm 2 mps 758 mmHg 93%
    04:00 +27°C° 0 mm 2 mps 759 mmHg 92%
    05:00 +27°C° 0 mm 2 mps 759 mmHg 91%
    06:00 +27°C° 0 mm 2 mps 759 mmHg 89%
    07:00 +29°C° 0 mm 2 mps 760 mmHg 80%
    08:00 +31°C° 0 mm 3 mps 760 mmHg 71%
    09:00 +34°C° 0 mm 3 mps 760 mmHg 62%
    10:00 +35°C° 0 mm 4 mps 760 mmHg 57%
    11:00 +36°C° 0 mm 4 mps 760 mmHg 52%
    12:00 +37°C° 0 mm 4 mps 760 mmHg 47%
    13:00 +36°C° 0 mm 4 mps 759 mmHg 48%
    14:00 +36°C° 0 mm 4 mps 759 mmHg 49%
    15:00 +36°C° 0 mm 4 mps 758 mmHg 51%
    16:00 +34°C° 0 mm 4 mps 758 mmHg 56%
    17:00 +33°C° 0 mm 3 mps 759 mmHg 62%
    18:00 +31°C° 0 mm 3 mps 759 mmHg 68%
    19:00 +29°C° 0 mm 3 mps 759 mmHg 75%
    20:00 +28°C° 0 mm 2 mps 760 mmHg 82%
    21:00 +27°C° 0 mm 2 mps 760 mmHg 89%
    22:00 +27°C° 0 mm 2 mps 760 mmHg 90%
    23:00 +27°C° 0 mm 2 mps 760 mmHg 92%

    Tomorrow, 26 June, Wednesday

    Time Temperature Precipitation Wind Pressure Humidity
    00:00 +27°C° 0 mm 2 mps 760 mmHg 94%
    01:00 +26°C° 0 mm 2 mps 760 mmHg 94%
    02:00 +26°C° 0 mm 2 mps 760 mmHg 94%
    03:00 +26°C° 0 mm 2 mps 759 mmHg 95%
    04:00 +26°C° 0 mm 2 mps 760 mmHg 93%
    05:00 +27°C° 0 mm 2 mps 760 mmHg 92%
    06:00 +27°C° 0 mm 2 mps 760 mmHg 91%
    07:00 +29°C° 0 mm 3 mps 760 mmHg 80%
    08:00 +31°C° 0 mm 3 mps 761 mmHg 70%
    09:00 +34°C° 0 mm 3 mps 761 mmHg 60%
    10:00 +35°C° 0 mm 4 mps 761 mmHg 56%
    11:00 +36°C° 0 mm 4 mps 760 mmHg 53%
    12:00 +37°C° 0 mm 4 mps 760 mmHg 50%
    13:00 +36°C° 0 mm 4 mps 760 mmHg 49%
    14:00 +36°C° 0 mm 4 mps 759 mmHg 48%
    15:00 +36°C° 0 mm 5 mps 758 mmHg 46%
    16:00 +34°C° 0 mm 4 mps 758 mmHg 52%
    17:00 +33°C° 0 mm 4 mps 759 mmHg 58%
    18:00 +31°C° 0 mm 3 mps 759 mmHg 64%
    19:00 +30°C° 0 mm 3 mps 759 mmHg 71%
    20:00 +28°C° 0 mm 3 mps 760 mmHg 79%
    21:00 +27°C° 0 mm 2 mps 761 mmHg 86%
    22:00 +27°C° 0 mm 2 mps 760 mmHg 88%
    23:00 +27°C° 0 mm 2 mps 760 mmHg 89%

    Day after tomorrow, 27 June, Thursday

    Time Temperature Precipitation Wind Pressure Humidity
    00:00 +27°C° 0 mm 2 mps 760 mmHg 91%
    01:00 +27°C° 0 mm 2 mps 760 mmHg 91%
    02:00 +26°C° 0 mm 2 mps 760 mmHg 92%
    03:00 +26°C° 0 mm 2 mps 759 mmHg 92%
    04:00 +26°C° 0 mm 2 mps 759 mmHg 91%
    05:00 +26°C° 0 mm 1 mps 759 mmHg 91%
    06:00 +27°C° 0 mm 1 mps 760 mmHg 90%
    07:00 +28°C° 0 mm 2 mps 760 mmHg 81%
    08:00 +30°C° 0 mm 2 mps 760 mmHg 71%
    09:00 +32°C° 0 mm 2 mps 761 mmHg 62%
    10:00 +34°C° 0.1 mm 3 mps 760 mmHg 56%
    11:00 +35°C° 0.1 mm 3 mps 760 mmHg 51%
    12:00 +37°C° 0.1 mm 3 mps 760 mmHg 45%
    13:00 +36°C° 0 mm 4 mps 759 mmHg 45%
    14:00 +36°C° 0 mm 4 mps 759 mmHg 46%
    15:00 +36°C° 0 mm 4 mps 758 mmHg 46%
    16:00 +35°C° 0 mm 4 mps 758 mmHg 52%
    17:00 +33°C° 0 mm 4 mps 758 mmHg 58%
    18:00 +31°C° 0 mm 3 mps 759 mmHg 64%
    19:00 +30°C° 0 mm 3 mps 759 mmHg 71%
    20:00 +29°C° 0 mm 3 mps 760 mmHg 77%
    21:00 +27°C° 0 mm 2 mps 760 mmHg 84%
    22:00 +27°C° 0 mm 2 mps 760 mmHg 87%
    23:00 +27°C° 0 mm 2 mps 760 mmHg 90%

    28 June, Friday

    Time Temperature Precipitation Wind Pressure Humidity
    00:00 +26°C° 0 mm 1 mps 760 mmHg 94%
    01:00 +26°C° 0 mm 1 mps 760 mmHg 94%
    02:00 +26°C° 0 mm 1 mps 759 mmHg 95%
    03:00 +26°C° 0 mm 1 mps 759 mmHg 96%
    04:00 +26°C° 0 mm 1 mps 759 mmHg 94%
    05:00 +27°C° 0 mm 1 mps 760 mmHg 92%
    06:00 +27°C° 0 mm 1 mps 760 mmHg 90%
    07:00 +29°C° 0 mm 1 mps 760 mmHg 81%
    08:00 +31°C° 0 mm 2 mps 761 mmHg 71%
    09:00 +32°C° 0 mm 2 mps 761 mmHg 61%
    10:00 +35°C° 0 mm 2 mps 761 mmHg 55%
    11:00 +36°C° 0 mm 3 mps 760 mmHg 48%
    12:00 +37°C° 0 mm 3 mps 760 mmHg 42%
    13:00 +37°C° 0 mm 3 mps 759 mmHg 42%
    14:00 +37°C° 0 mm 4 mps 759 mmHg 43%
    15:00 +36°C° 0 mm 4 mps 758 mmHg 43%
    16:00 +35°C° 0 mm 4 mps 758 mmHg 50%
    17:00 +33°C° 0 mm 3 mps 758 mmHg 57%
    18:00 +31°C° 0 mm 3 mps 759 mmHg 65%
    19:00 +30°C° 0.1 mm 3 mps 759 mmHg 72%
    20:00 +28°C° 0.1 mm 2 mps 760 mmHg 80%
    21:00 +27°C° 0.1 mm 2 mps 760 mmHg 88%
    22:00 +26°C° 0.2 mm 2 mps 760 mmHg 90%
    23:00 +26°C° 0.2 mm 1 mps 760 mmHg 92%

    29 June, Saturday

    Time Temperature Precipitation Wind Pressure Humidity
    00:00 +26°C° 0.2 mm 1 mps 760 mmHg 94%
    01:00 +25°C° 0.2 mm 1 mps 760 mmHg 95%
    02:00 +25°C° 0.2 mm 1 mps 760 mmHg 96%
    03:00 +25°C° 0.2 mm 1 mps 759 mmHg 96%
    04:00 +25°C° 0 mm 1 mps 760 mmHg 96%
    05:00 +25°C° 0 mm 1 mps 760 mmHg 96%
    06:00 +25°C° 0 mm 1 mps 760 mmHg 95%
    07:00 +27°C° 0 mm 1 mps 760 mmHg 84%
    08:00 +30°C° 0 mm 1 mps 761 mmHg 73%
    09:00 +32°C° 0 mm 1 mps 761 mmHg 62%
    10:00 +34°C° 0 mm 2 mps 761 mmHg 56%
    11:00 +35°C° 0 mm 2 mps 760 mmHg 49%
    12:00 +37°C° 0 mm 3 mps 760 mmHg 43%
    13:00 +36°C° 0 mm 3 mps 760 mmHg 43%
    14:00 +36°C° 0 mm 3 mps 759 mmHg 43%
    15:00 +36°C° 0 mm 4 mps 759 mmHg 43%
    16:00 +34°C° 0 mm 3 mps 759 mmHg 50%
    17:00 +33°C° 0 mm 3 mps 759 mmHg 56%
    18:00 +30°C° 0 mm 3 mps 759 mmHg 63%
    19:00 +29°C° 0 mm 3 mps 759 mmHg 70%
    20:00 +28°C° 0 mm 2 mps 760 mmHg 77%
    21:00 +27°C° 0 mm 2 mps 761 mmHg 84%
    22:00 +27°C° 0 mm 2 mps 760 mmHg 85%
    23:00 +26°C° 0 mm 2 mps 760 mmHg 87%

    30 June, Sunday

    Time Temperature Precipitation Wind Pressure Humidity
    00:00 +26°C° 0 mm 2 mps 760 mmHg 88%
    01:00 +26°C° 0 mm 2 mps 760 mmHg 89%
    02:00 +26°C° 0 mm 1 mps 759 mmHg 91%
    03:00 +26°C° 0 mm 1 mps 759 mmHg 92%
    04:00 +26°C° 0.7 mm 1 mps 759 mmHg 92%
    05:00 +26°C° 0.7 mm 2 mps 759 mmHg 93%
    06:00 +26°C° 0.7 mm 2 mps 759 mmHg 93%
    07:00 +26°C° 3.3 mm 2 mps 760 mmHg 93%
    08:00 +26°C° 3.3 mm 2 mps 760 mmHg 94%
    09:00 +27°C° 3.3 mm 3 mps 760 mmHg 94%
    10:00 +27°C° 1.4 mm 2 mps 760 mmHg 93%
    11:00 +27°C° 1.4 mm 2 mps 760 mmHg 91%
    12:00 +28°C° 1.4 mm 2 mps 760 mmHg 89%
    13:00 +27°C° 1.9 mm 2 mps 760 mmHg 92%
    14:00 +27°C° 1.9 mm 2 mps 759 mmHg 94%
    15:00 +26°C° 1.9 mm 2 mps 759 mmHg 96%
    16:00 +27°C° 0.3 mm 2 mps 759 mmHg 96%
    17:00 +27°C° 0.3 mm 1 mps 759 mmHg 95%
    18:00 +27°C° 0.3 mm 1 mps 759 mmHg 95%
    19:00 +27°C° 0.1 mm 2 mps 759 mmHg 95%
    20:00 +27°C° 0.1 mm 2 mps 760 mmHg 95%
    21:00 +26°C° 0.1 mm 3 mps 760 mmHg 95%
    22:00 +27°C° 0.9 mm 3 mps 760 mmHg 95%
    23:00 +27°C° 0.9 mm 3 mps 760 mmHg 95%
    Show more